Stations météo

Publicité
Montelimar, France (7577): Température de l'air & dewpoint: 09.11.2019 17:00:00 - 15.11.2019 17:00:00 (CET)Montelimar, France (7577): Température de l'air 5cm: 09.11.2019 17:00:00 - 15.11.2019 17:00:00 (CET)Montelimar, France (7577): Température de l'air -20cm & Température de l'air -100cm: 09.11.2019 17:00:00 - 15.11.2019 17:00:00 (CET)Montelimar, France (7577): Vitesse du vent & gusts: 09.11.2019 17:00:00 - 15.11.2019 17:00:00 (CET)Montelimar, France (7577): Direction du vent: 09.11.2019 17:00:00 - 15.11.2019 17:00:00 (CET)Montelimar, France (7577): reduced air pressure: 09.11.2019 17:00:00 - 15.11.2019 17:00:00 (CET)Montelimar, France (7577): visibility: 09.11.2019 17:00:00 - 15.11.2019 17:00:00 (CET)Montelimar, France (7577): Ensoleillement: 09.11.2019 17:00:00 - 15.11.2019 17:00:00 (CET)Montelimar, France (7577): Quantités de précipitations: 09.11.2019 17:00:00 - 15.11.2019 17:00:00 (CET)
Date & Time tt [°C] td [°C] tt 5cm [°C] tt -20cm [°C] tt -100cm [°C] ff [km/h] ff [knt] fx [km/h] fx [knt] dd ppp [hPa] vv [km] sd [min] rr [mm]
15.11.2019 17:00:00 - - - - - - - - - - - - - -
15.11.2019 16:00:00 2,6 1,6 3,4 8,0 13,9 15 8 27 14 NNE 1001,9 0,9 16 0,0
15.11.2019 15:00:00 3,7 2,7 4,9 7,9 13,9 10 5 17 9 N 1001,7 4,8 0 0,0
15.11.2019 14:00:00 3,8 2,8 5,6 7,8 13,9 5 3 9 5 NNW 1001,7 13 0 0,0
15.11.2019 13:00:00 3,0 2,1 4,5 7,8 14,0 3 2 8 5 NNE 1002,2 12 0 0,0
15.11.2019 12:00:00 2,5 1,6 3,0 7,8 14,0 2 1 6 4 SE 1002,8 0,4 0 0,0
15.11.2019 11:00:00 2,1 1,2 2,8 7,8 14,0 3 2 7 4 E 1003,2 1,1 0 0,0
15.11.2019 10:00:00 1,9 1,0 2,8 7,8 14,1 2 1 7 4 S 1002,8 1,6 0 0,0
15.11.2019 09:00:00 2,0 1,1 1,7 7,8 14,1 0 0 4 2 N 1002,5 4,5 0 0,0
15.11.2019 08:00:00 1,6 0,7 1,2 7,9 14,2 0 0 6 3 N 1002,3 8 0 0,0
15.11.2019 07:00:00 1,4 0,5 0,1 7,9 14,2 0 0 5 3 N 1001,9 6 0 0,0
15.11.2019 06:00:00 0,5 -0,5 -1,3 7,9 14,2 0 0 4 2 N 1001,7 7 0 0,0
15.11.2019 05:00:00 0,7 -0,6 -0,6 7,9 14,3 3 1 4 2 S 1001,1 7 0 0,0
15.11.2019 04:00:00 1,5 0,3 1,0 8,0 14,3 2 1 4 2 WSW 1000,2 14 0 0,0
15.11.2019 03:00:00 1,4 0,2 0,9 8,0 14,3 0 0 4 2 N 999,4 20 0 0,0
15.11.2019 02:00:00 1,3 0,3 1,1 8,1 14,4 6 3 18 10 NNE 998,6 20 0 0,6
15.11.2019 01:00:00 1,3 0,3 1,0 8,3 14,4 13 7 20 11 NNE 997,9 11 0 2,0
15.11.2019 00:00:00 1,5 0,6 0,8 8,4 14,4 10 6 21 11 NNE 997,7 16 0 1,6
14.11.2019 23:00:00 1,1 0,2 0,3 8,5 14,5 9 5 27 15 N 997,8 15 0 2,7
14.11.2019 22:00:00 0,9 -0,1 0,1 8,7 14,6 5 3 23 13 N 998,7 18 0 2,4
14.11.2019 21:00:00 0,8 -0,1 0,1 8,8 14,6 14 8 23 12 NNE 998,0 15 0 5,6
14.11.2019 20:00:00 1,4 0,4 0,3 9,0 14,6 15 8 38 21 NNE 998,4 8 0 3,2
14.11.2019 19:00:00 1,5 0,5 1,2 9,1 14,7 15 8 35 19 N 998,2 8 0 4,0
14.11.2019 18:00:00 1,6 0,6 1,4 9,2 14,7 20 11 32 17 N 998,2 6 0 5,6
14.11.2019 17:00:00 2,2 0,9 1,9 9,4 14,8 14 8 42 23 N 997,8 7 0 2,4
14.11.2019 16:00:00 2,3 1,1 2,0 9,5 14,8 25 13 44 24 N 997,4 19 0 2,9
14.11.2019 15:00:00 2,0 0,8 2,0 9,6 14,8 23 13 44 24 N 998,9 9 0 4,8
14.11.2019 14:00:00 2,4 1,1 2,4 9,7 14,8 25 13 45 25 N 999,4 7 0 5,4
14.11.2019 13:00:00 4,6 3,1 4,5 9,9 14,8 24 13 39 21 N 999,9 6 0 5,8
14.11.2019 12:00:00 4,9 4,0 3,8 10,1 14,8 13 7 23 12 N 1000,8 4,2 0 7,0
14.11.2019 11:00:00 3,8 2,5 3,6 10,2 14,8 4 2 9 5 SSW 1001,2 1,8 0 9,3
14.11.2019 10:00:00 3,8 2,2 3,5 10,3 14,9 3 2 11 6 SW 1001,7 2,6 0 3,0
14.11.2019 09:00:00 3,7 1,7 3,4 10,3 14,9 2 1 6 3 NE 1002,4 8 0 1,0
14.11.2019 08:00:00 3,5 1,2 3,0 10,4 14,9 2 1 6 4 ENE 1002,8 19 0 0,2
14.11.2019 07:00:00 3,4 0,8 2,9 10,4 15,0 2 1 8 5 W 1003,6 18 0 0,0
14.11.2019 06:00:00 3,2 0,4 2,6 10,5 14,9 5 3 17 9 S 1004,3 20 0 0,0
14.11.2019 05:00:00 2,7 0,4 1,2 10,6 15,0 7 4 13 7 S 1004,2 20 0 0,0
14.11.2019 04:00:00 1,5 -0,1 0,2 10,7 15,0 0 0 8 4 N 1004,5 20 0 0,0
14.11.2019 03:00:00 1,0 -0,8 -0,5 10,7 14,9 3 2 6 3 ESE 1004,9 17 0 0,0
14.11.2019 02:00:00 1,2 -0,6 -1,6 10,8 15,0 0 0 6 3 N 1005,6 13 0 0,0
14.11.2019 01:00:00 0,9 -1,3 -1,9 10,9 15,0 0 0 5 3 N 1006,3 16 0 0,0
14.11.2019 00:00:00 2,5 -0,1 -0,4 11,0 15,0 2 1 8 5 SW 1006,9 11 0 0,0
13.11.2019 23:00:00 2,4 -0,4 -0,7 11,0 15,0 4 2 13 7 ESE 1007,7 20 0 0,0
13.11.2019 22:00:00 1,9 -1,2 -1,0 11,1 15,0 4 2 5 3 ENE 1008,2 20 0 0,0
13.11.2019 21:00:00 3,7 -0,1 0,3 11,1 15,0 0 0 8 4 N 1007,8 20 0 0,0
13.11.2019 20:00:00 4,0 0,1 0,2 11,1 15,1 4 2 10 5 ESE 1008,0 20 0 0,0
13.11.2019 19:00:00 5,7 0,5 2,5 11,1 15,1 4 2 21 11 S 1008,5 20 0 0,0
13.11.2019 18:00:00 8,4 0,4 6,3 11,0 15,1 10 5 27 15 N 1007,6 20 0 0,0
13.11.2019 17:00:00 9,2 0,6 8,2 11,0 15,1 17 9 38 20 N 1007,0 20 41 0,0
13.11.2019 16:00:00 9,9 1,0 11,9 10,9 15,1 21 11 45 25 N 1006,7 20 60 0,0
13.11.2019 15:00:00 10,1 0,9 12,5 10,9 15,1 23 13 48 26 N 1006,4 20 60 0,0
13.11.2019 14:00:00 9,9 1,5 12,8 10,9 15,1 23 12 46 25 N 1006,0 20 60 0,0
13.11.2019 13:00:00 9,6 1,2 11,6 10,8 15,1 29 16 61 33 NNE 1006,2 20 58 0,0
13.11.2019 12:00:00 9,4 2,5 10,8 10,8 15,2 24 13 51 27 NNE 1006,7 20 57 0,0
13.11.2019 11:00:00 8,7 2,9 9,9 10,9 15,2 20 11 41 22 NNE 1007,0 20 55 0,0
13.11.2019 10:00:00 7,9 2,4 9,5 10,9 15,2 24 13 42 23 NNE 1006,6 20 60 0,0
13.11.2019 09:00:00 7,5 2,4 6,3 11,0 15,2 19 10 36 19 NNE 1006,5 20 46 0,0
13.11.2019 08:00:00 7,2 1,7 6,3 11,0 15,2 11 6 23 12 N 1005,8 20 1 0,0
13.11.2019 07:00:00 7,1 2,0 6,2 11,1 15,2 7 4 24 13 N 1005,3 20 0 0,0
13.11.2019 06:00:00 6,8 1,9 1,3 11,2 15,3 13 7 29 15 N 1004,7 20 0 0,0
13.11.2019 05:00:00 4,9 1,4 2,1 11,3 15,2 2 1 14 8 E 1004,7 20 0 0,0
13.11.2019 04:00:00 5,7 1,8 3,0 11,3 15,2 8 4 16 9 NE 1004,5 20 0 0,0
13.11.2019 03:00:00 5,6 1,9 1,6 11,4 15,3 7 4 12 7 NNE 1004,5 20 0 0,0
13.11.2019 02:00:00 5,8 0,9 2,6 11,5 15,3 6 3 18 10 NNE 1004,5 20 0 0,0
13.11.2019 01:00:00 6,9 1,2 5,0 11,5 15,3 10 6 18 10 NNE 1004,3 20 0 0,0
13.11.2019 00:00:00 7,8 1,0 5,2 11,5 15,3 6 3 17 9 NNE 1004,3 20 0 0,0
12.11.2019 23:00:00 7,8 1,8 4,9 11,6 15,3 9 5 16 9 NNE 1004,5 20 0 0,0
12.11.2019 22:00:00 7,7 1,3 3,7 11,6 15,3 9 5 19 10 NE 1004,8 20 0 0,0
12.11.2019 21:00:00 8,0 1,4 4,3 11,6 15,4 5 3 13 7 N 1005,2 20 0 0,0
12.11.2019 20:00:00 8,6 1,5 4,9 11,6 15,4 6 3 13 7 N 1005,5 20 0 0,0
12.11.2019 19:00:00 8,7 2,3 4,9 11,5 15,4 5 3 11 6 NE 1006,1 20 0 0,0
12.11.2019 18:00:00 10,5 1,6 8,8 11,5 15,4 9 5 29 16 N 1005,8 20 0 0,0
12.11.2019 17:00:00 11,1 1,6 9,8 11,4 15,4 13 7 36 19 N 1005,6 20 40 0,0
12.11.2019 16:00:00 11,9 2,1 12,4 11,4 15,4 21 12 43 23 NNE 1005,6 20 48 0,0
12.11.2019 15:00:00 12,0 2,4 12,1 11,3 15,4 24 13 46 25 NNE 1005,7 20 50 0,0
12.11.2019 14:00:00 11,9 2,3 14,3 11,2 15,4 20 11 43 23 NNE 1006,4 20 60 0,0
12.11.2019 13:00:00 11,2 1,7 14,1 11,2 15,4 24 13 42 23 NNE 1007,5 20 60 0,0
12.11.2019 12:00:00 10,6 1,4 13,2 11,2 15,4 22 12 44 24 NNE 1008,9 20 60 0,0
12.11.2019 11:00:00 9,9 2,3 12,0 11,3 15,4 19 10 45 24 NNE 1010,0 20 60 0,0
12.11.2019 10:00:00 9,0 2,1 8,9 11,4 15,5 15 8 26 14 NNE 1010,3 20 60 0,0
12.11.2019 09:00:00 6,4 2,5 4,9 11,4 15,5 11 6 23 12 NE 1010,9 20 52 0,0
12.11.2019 08:00:00 5,4 1,9 4,3 11,5 15,5 16 9 26 14 NNE 1010,5 20 0 0,0
12.11.2019 07:00:00 5,6 1,9 4,1 11,5 15,5 13 7 28 15 NNE 1010,5 20 0 0,0
12.11.2019 06:00:00 5,4 1,9 3,6 11,6 15,5 11 6 16 9 NE 1010,8 20 0 0,0
12.11.2019 05:00:00 6,0 1,7 4,9 11,7 15,5 13 7 29 16 NNE 1011,3 20 0 0,0
12.11.2019 04:00:00 7,5 1,3 6,3 11,7 15,6 18 10 44 24 N 1011,4 20 0 0,0
12.11.2019 03:00:00 7,6 2,5 6,0 11,8 15,6 11 6 24 13 N 1011,8 20 0 0,0
12.11.2019 02:00:00 7,1 3,7 5,8 11,8 15,6 11 6 31 17 NNE 1011,8 20 0 0,0
12.11.2019 01:00:00 8,1 3,5 5,6 11,8 15,6 20 11 35 19 N 1011,9 20 0 0,0
12.11.2019 00:00:00 8,0 3,1 6,0 11,9 15,6 6 4 41 22 N 1011,6 20 0 0,0
11.11.2019 23:00:00 7,6 3,8 6,2 11,9 15,6 13 7 22 12 NNE 1011,4 16 0 0,0
11.11.2019 22:00:00 6,7 3,5 3,8 11,9 15,6 12 6 19 10 N 1010,7 20 0 0,0
11.11.2019 21:00:00 6,7 3,1 3,6 11,9 15,7 8 5 13 7 N 1010,5 20 0 0,0
11.11.2019 20:00:00 6,1 3,1 3,3 11,9 15,7 5 3 14 7 N 1010,3 20 0 0,0
11.11.2019 19:00:00 7,7 3,2 5,5 11,9 15,7 6 4 20 11 N 1009,9 20 0 0,0
11.11.2019 18:00:00 8,5 3,1 6,7 11,9 15,7 10 5 18 10 NNE 1009,6 20 0 0,0
11.11.2019 17:00:00 10,0 3,5 8,0 11,8 15,7 5 3 18 10 NNW 1009,4 20 39 0,0
11.11.2019 16:00:00 10,9 3,0 11,7 11,7 15,7 13 7 22 12 NNE 1009,2 20 47 0,0
11.11.2019 15:00:00 11,1 2,9 11,8 11,7 15,7 13 7 25 14 NNE 1009,5 20 23 0,0
11.11.2019 14:00:00 10,5 3,5 11,6 11,7 15,7 13 7 24 13 NNE 1009,9 20 22 0,0
11.11.2019 13:00:00 10,3 3,8 9,6 11,6 15,7 17 9 24 13 NNE 1010,8 20 32 0,0
11.11.2019 12:00:00 9,1 3,5 10,0 11,7 15,8 17 9 29 15 NNE 1011,9 20 1 0,0
11.11.2019 11:00:00 8,7 3,3 8,8 11,7 15,8 18 10 32 18 NNE 1012,8 20 10 0,0
11.11.2019 10:00:00 7,6 3,3 7,3 11,7 15,8 16 8 31 17 NNE 1013,1 20 0 0,0
11.11.2019 09:00:00 7,1 3,0 7,0 11,8 15,8 16 9 29 16 NNE 1013,8 20 2 0,0
11.11.2019 08:00:00 7,0 2,7 6,6 11,8 15,8 18 10 34 18 NNE 1013,8 20 4 0,0
11.11.2019 07:00:00 6,8 2,9 6,4 11,9 15,9 18 10 33 18 NNE 1013,5 20 0 0,0
11.11.2019 06:00:00 7,0 2,7 6,4 11,9 15,9 22 12 38 21 NNE 1013,7 20 0 0,0
11.11.2019 05:00:00 6,9 2,8 6,6 12,0 15,9 21 11 36 20 NNE 1013,8 20 0 0,0
11.11.2019 04:00:00 7,0 2,9 6,6 12,1 15,9 22 12 40 21 NNE 1013,9 20 0 0,0
11.11.2019 03:00:00 7,0 2,7 6,7 12,1 15,9 22 12 36 20 NNE 1014,2 20 0 0,0
11.11.2019 02:00:00 7,1 2,8 6,4 12,2 15,9 21 11 33 18 NNE 1014,4 20 0 0,0
11.11.2019 01:00:00 7,4 2,7 6,3 12,2 15,9 20 11 35 19 N 1013,9 20 0 0,0
11.11.2019 00:00:00 7,5 3,0 5,8 12,3 16,0 19 10 30 16 NNE 1013,1 20 0 0,0
10.11.2019 23:00:00 7,2 2,9 6,2 12,3 16,0 16 9 30 16 NE 1013,5 20 0 0,0
10.11.2019 22:00:00 8,0 2,7 6,9 12,3 16,0 14 8 33 18 NNE 1013,0 20 0 0,0
10.11.2019 21:00:00 9,2 2,5 8,1 12,4 16,0 21 12 37 20 N 1013,0 20 0 0,0
10.11.2019 20:00:00 9,5 2,3 8,6 12,4 16,0 18 10 43 23 N 1012,9 20 0 0,0
10.11.2019 19:00:00 9,6 2,7 8,7 12,3 16,0 21 12 46 25 N 1012,4 20 0 0,0
10.11.2019 18:00:00 10,2 2,3 9,1 12,4 16,0 23 12 49 26 N 1011,6 20 0 0,0
10.11.2019 17:00:00 10,6 2,9 9,9 12,3 16,0 20 11 50 27 N 1010,5 20 46 0,0
10.11.2019 16:00:00 11,2 3,0 12,3 12,3 16,0 23 13 46 25 N 1010,1 20 60 0,0
10.11.2019 15:00:00 11,1 3,1 11,5 12,2 16,1 20 11 42 23 N 1010,0 20 23 0,0
10.11.2019 14:00:00 10,2 3,9 11,3 12,2 16,1 21 12 40 22 N 1010,0 20 34 0,0
10.11.2019 13:00:00 9,1 3,9 10,1 12,3 16,1 14 8 31 17 NNE 1010,3 20 0 0,0
10.11.2019 12:00:00 8,3 3,9 9,2 12,3 16,1 11 6 19 10 NNE 1010,2 20 0 0,0
10.11.2019 11:00:00 6,9 4,7 8,2 12,3 16,1 0 0 6 4 N 1010,4 20 14 0,0
10.11.2019 10:00:00 5,9 4,9 4,5 12,4 16,1 2 1 4 2 ENE 1010,2 20 8 0,0
10.11.2019 09:00:00 4,2 3,0 2,3 12,5 16,2 0 0 5 3 N 1010,0 7 0 0,0
10.11.2019 08:00:00 3,9 2,3 1,8 12,5 16,1 0 0 6 3 N 1009,8 4,1 0 0,0
10.11.2019 07:00:00 4,7 2,9 2,9 12,6 16,2 3 1 4 2 ENE 1009,5 7 0 0,0
10.11.2019 06:00:00 5,5 3,8 4,5 12,6 16,2 0 0 5 3 N 1009,4 13 0 0,0
10.11.2019 05:00:00 6,1 4,4 5,7 12,6 16,2 3 2 6 3 E 1009,4 20 0 0,0
10.11.2019 04:00:00 5,9 4,1 5,2 12,7 16,2 0 0 5 3 N 1009,4 18 0 0,0
10.11.2019 03:00:00 5,9 4,1 5,5 12,7 16,2 0 0 7 4 N 1009,8 20 0 0,0
10.11.2019 02:00:00 5,7 3,9 5,1 12,8 16,2 4 2 10 5 SSW 1010,1 20 0 0,0
10.11.2019 01:00:00 5,1 3,1 4,6 12,9 16,2 0 0 6 3 N 1009,9 20 0 0,0
10.11.2019 00:00:00 4,6 2,6 3,9 13,0 16,3 2 1 5 3 SSW 1009,7 20 0 0,0
09.11.2019 23:00:00 3,9 2,3 1,0 13,0 16,3 0 0 5 3 N 1009,8 9 0 0,0
09.11.2019 22:00:00 4,5 2,7 2,0 13,1 16,3 3 2 4 2 SSW 1010,3 12 0 0,0
09.11.2019 21:00:00 4,9 2,6 2,5 13,1 16,3 4 2 6 4 E 1010,0 20 0 0,0
09.11.2019 20:00:00 6,0 3,0 3,3 13,1 16,3 3 2 9 5 WNW 1010,1 11 0 0,0
09.11.2019 19:00:00 6,9 2,8 4,3 13,1 16,3 6 3 12 6 ENE 1010,2 20 0 0,0
09.11.2019 18:00:00 8,6 3,8 5,6 13,0 16,3 8 4 12 6 N 1010,2 20 0 0,0
09.11.2019 17:00:00 10,3 3,6 7,6 13,0 16,3 3 2 24 13 NW 1010,6 20 22 0,0

tt = Température de l'air
td = dewpoint
tt 5cm = Température de l'air 5cm
tt -20cm = Température de l'air -20cm
tt -100cm = Température de l'air -100cm
ff = Vitesse du vent
fx = gusts
dd = Direction du vent
ppp = reduced air pressure
vv = visibility
sd = Ensoleillement
rr = Quantités de précipitations

stations d'obs. à proximité